Regional Weather Roundup
Issued by NWS

Home | Current Version | Previous Version | Graphics & Text | Print | Product List | Glossary On
Versions: 1 2 3 4 5 6 7 8 9 10 11 12 13 14 15 16 17 18 19 20 21 22 23 24 25 26 27 28 29 30 31 32 33 34 35 36 37 38 39 40 41 42 43 44 45 46 47 48 49 50
000
ASUS43 KMKX 230711
RWRWI

WISCONSIN REGIONAL WEATHER ROUNDUP
NATIONAL WEATHER SERVICE MILWAUKEE/SULLIVAN WI
200 AM CDT SAT AUG 23 2014

NOTE: "FAIR" INDICATES FEW OR NO CLOUDS BELOW 12,000 FEET WITH NO
SIGNIFICANT WEATHER AND/OR OBSTRUCTIONS TO VISIBILITY.

WIZ001-002-006>008-014>016-023>028-230800-
NORTHWEST WISCONSIN

CITY           SKY/WX    TMP DP  RH WIND       PRES   REMARKS
SUPERIOR ARPT  CLEAR     59  59  99 CALM      30.05F
ASHLAND        CLOUDY    63  61  93 CALM      30.06S
HAYWARD        CLOUDY    64  64 100 N7        30.05F
SIREN          CLOUDY    66  64  93 NE5       30.02F
RICE LAKE      CLOUDY    67  65  95 N7        30.03F
LADYSMITH      CLOUDY    66  65  95 NE6       30.05S FOG
EAU CLAIRE     CLOUDY    70  69  97 N6        29.99S
MENOMONIE      CLOUDY    71  69  94 NE5       30.00S
NEW RICHMOND   CLOUDY    68  68  98 NE6       30.01F
OSCEOLA        CLOUDY    69  69 100 NE5       30.03F
$$

WIZ003>005-009-010-017-018-230800-
NORTH CENTRAL WISCONSIN

CITY           SKY/WX    TMP DP  RH WIND       PRES   REMARKS
WOODRUFF       FOG       67  65  92 CALM      30.05S VSB 1/2
RHINELANDER    FOG       68  68 100 CALM      30.05S VSB 1/2
EAGLE RIVER    DRZL/FOG  69  69 100 CALM      30.04S VSB 1/4
LAND O LAKES   CLOUDY    68  68 100 CALM      30.06S FOG
PHILLIPS       CLOUDY    65  65 100 N3        30.04S FOG
TOMAHAWK       CLOUDY    68  67  96 CALM      30.04F FOG
MEDFORD        CLOUDY    68  68  99 N5        30.02F FOG
MERRILL        FOG       70  70 100 CALM      30.02F VSB 1/2
$$

WIZ029-030-035-036-043>047-230800-
CENTRAL WISCONSIN

CITY           SKY/WX    TMP DP  RH WIND       PRES   REMARKS
WAUSAU         CLOUDY    72  70  93 E3        30.00F FOG
MOSINEE        CLOUDY    70  70 100 E3        30.01S FOG
MARSHFIELD     CLOUDY    74  72  93 E5        29.99F FOG
STEVENS POINT  CLOUDY    69  68  97 E3        30.00F FOG
WAUPACA          N/A     72  71  95 NE5       30.00S FOG
WAUTOMA        MOCLDY    73  71  93 E3        29.99S
WISC RAPIDS    CLOUDY    73  71  93 NE5       30.00S
CAMP DOUGLAS   FOG       68  68 100 W2        29.97S VSB 1/4
$$

WIZ011>013-019>022-031-037>040-048>050-230800-
NORTHEAST WISCONSIN

CITY           SKY/WX    TMP DP  RH WIND       PRES   REMARKS
ANTIGO         CLOUDY    68  68  99 E6        30.03F FOG
STURGEON BAY   MOCLDY    68  64  88 E5        30.02S
GREEN BAY      LGT RAIN  69  68  96 CALM      30.01S FOG
MANITOWOC      FOG       66  66 100 CALM      30.00F VSB 1/4
APPLETON       CLOUDY    70  68  94 E3        30.01S FOG
CLINTONVILLE   CLOUDY    70  68  94 E3        30.01S FOG
OSHKOSH        MOCLDY    71  70  96 E3        29.99S FOG
$$

WIZ032>034-041-042-053>061-230800-
SOUTHWEST WISCONSIN

CITY           SKY/WX    TMP DP  RH WIND       PRES   REMARKS
LA CROSSE      MOCLDY    73  70  90 N6        29.96F
SPARTA         CLOUDY    67  66  97 CALM      29.98S FOG
VIROQUA        FAIR      72  72 100 CALM      29.99F
BOSCOBEL       MOCLDY    76  74  93 CALM      29.96R FOG
PRAIRIE DU CHI MOCLDY    78  74  90 CALM      29.96R
PLATTEVILLE    FAIR      75  74  96 CALM      29.98S
$$

WIZ056-057-062-063-064-067-068-230800-
SOUTH CENTRAL WISCONSIN

CITY           SKY/WX    TMP DP  RH WIND       PRES   REMARKS
BARABOO/DELLS    N/A     73  70  93 CALM      29.97S FOG
LONE ROCK      MOCLDY    78  73  84 CALM      29.96R HAZE    HX  81
WATERTOWN      CLOUDY    71  71 100 SE3       29.98R FOG
MADISON        CLOUDY    75  73  93 SE6       29.97S FOG
MIDDLETON      CLOUDY    78  77  98 E5        29.98S HX  80
MONROE           N/A     73  72  94 E3        29.98R FOG
JANESVILLE     CLOUDY    75  72  88 E3        29.96S FOG
$$

WIZ051-052-058>065-066-070>072-230800-
SOUTHEAST WISCONSIN

CITY           SKY/WX    TMP DP  RH WIND       PRES   REMARKS
MILWAUKEE      FOG       69  68  96 E3        29.99F VSB 1/8
WAUKESHA       FOG       68  68 100 E6        30.00S VSB 3/4
MILWAUKEE/TIMM FOG       68  66  94 CALM      29.99F VSB 1/2
RACINE         FOG       70  69  97 CALM      30.00F VSB 1/4
BURLINGTON     FOG       70  70  99 E5        29.99R VSB 1/4
KENOSHA        FOG       70  70 100 E6        29.99S VSB 1/2
FOND DU LAC    LGT RAIN  72  69  90 CALM      30.00R FOG
SHEBOYGAN      FOG       68  67  96 CALM      29.99F VSB 1/4
WEST BEND      FOG       68  64  88 CALM      29.99F VSB 1/4
JUNEAU         CLOUDY    70  43  37 CALM      30.00R HAZE
$$

LSZ147-162-230800-
LAKE SUPERIOR

STATION/POSITION TIME  TEMP    WIND        PRES    WAVE
                       AIR SEA DIR/SP/G            HT/PER
                 (UTC) (F)     (DEG/KT/KT) (MB)    (FT/S)
W MID LAKE BUOY  0650   58 58   40/  8/ 10 1017.5R   1/ 4
DEVILS ISLAND    0700   60      60/  8/  9 1017.9R
PORT WING        0600   61      CALM  /  1 1017.9
SAXON HARBOR     0640   63        CALM     1017.6S
$$

LMZ867-665-643>646-230800-
LAKE MICHIGAN

STATION/POSITION TIME  TEMP    WIND        PRES    WAVE
                       AIR SEA DIR/SP/G            HT/PER
                 (UTC) (F)     (DEG/KT/KT) (MB)    (FT/S)
N MID LAKE BUOY  0650   68 65  140/  8/  8 1015.7F   1
NORTHPORT PIER   0600   67     140/  3/  3 1016.3S
SISTER BAY       0611   68        CALM       N/A
KEWAUNEE LAKESHO 0600   67      CALM  /  2 1015.4R
SHEBOYGAN LAKESH 0700   67 66   10/  3/  3 1015.6F
ATWATER BUOY     0700   69     180/  4/  4 1016.4F
MILWAUKEE LAKESH 0600   69      60/  4/  4   N/A
S MID LAKE BUOY  0650   70 69   60/  8/ 10 1015.1F   0
KENOSHA   LAKESH 0700   70      30/  4/  4 1014.9F
$$

TC  - TEMPERATURE IN CELSIUS
VSB - VISIBILITY IN STATUTE MILES
WCI - WIND CHILL INDEX
HX  - HEAT INDEX




USA.gov is the U.S. government's official web portal to all federal, state and local government web resources and services.